STARLINK-31796, 59646

Orbit data source: Space-Track

STARLINK-31796, 59646 is a payload satellite owned by SpaceX/Seattle (US) in LEO that was launched on Fri, 03 May 2024 UTC via an FALCON 9 launch vehicle from the Air Force Eastern Test Range (AFETR). Payload-class satellites include a variety of spacecraft equipped with specific instruments for various scientific and technological missions. These include communications satellites like Starlink; space stations such as the ISS; scientific satellites like the Hubble; Earth observation satellites from companies like Planet Labs, Umbra, and HawkEye 360; GPS; miniature CubeSats for education and research; and military/defense satellites.

Loading next visibility...
Identifier
59646, 2024-082R
Orbit
LEO
Country
Flag of USUS
Related business
Manufacturer
SpaceX/Seattle
Mission
Operational Commercial Communications
Bus & Motor
STARLINK V2M, Unknown motor
Mass
730 kg wet, ~700 kg dry
Launch date (UTC)
2024-05-03 (2 years ago)
Launch vehicle
FALCON 9
Launch site
Air Force Eastern Test Range (AFETR)
Object type
Payload
Rocket body
Debris
Shape & HBR
Box + 2 Pan, 17.7 m
Radar Cross Section
33.884 m², Large (>1 m²)

Expand to show TLE details & history
Last TLE update: 2 days ago

TLE from 2 days ago
0 STARLINK-31796
1 59646U 24082R   26171.35401043  .00017875  00000-0  65904-3 0  9998
2 59646  43.0041 279.9706 0001194 284.6886  75.3833 15.27503886120671
Epoch: 2026-06-20T08:29Z
TLE epoch observation values (Epoch: 2026-06-20T08:29:46.501Z)
Latitude
-0.00002°
Longitude
-116.04302°
Altitude
482.846 km
Speed
7.626 km/s
True Right ascension
18h 39m 52s
True Declination
0° 00' 00"
Sunlit
Object was in full shadow at epoch
Visualization orbit readout
Latitude
Unknown
Longitude
Unknown
Altitude
Unknown
Speed
Unknown
Apparent Right ascension
Unknown
Apparent Declination
Unknown
Sunlit
N/A
Visualization observer readout
Local Sidereal Time
21:26:09
Azimuth
Unknown
Elevation
Unknown
Doppler factor
Unknown
Orbital elements
Apogee altitude
486.041 km
Perigee altitude
484.402 km
Semi-major axis
6,863.358 km
Eccentricity
0.00012
Inclination
43.0041°
RAAN
279.9706°
Arg. of periapsis
284.6886°
True anomaly
75.39654°
Mean anomaly
75.3833°
Eccentric anomaly
75.38992°
Mean motion
3.81714 °/min
Orbital period
94.31 mins
BSTAR
0.00065904
Loading maneuver chart data...
Computing Atmospheric mass density...
Loading historical data...
Loading historical data...
Loading historical data...
Loading historical data...
Loading historical data...
Loading historical data...
Loading historical data...

Documentation

Showing up to 5 results
|